Content
SEND FEEDBACK

Daily
Averages
Monthly
Summary
United States of America

ST. LOUIS, MISSOURI


Home > North America > United States > Missouri
Elevation: 535 feet     Latitude: 38 45N     Longitude: 090 22W

WEATHER
 
SELECT A DAY
Number of Records: 200,626;   Date Range: 1/1/95 - 11/26/14
 
SHARE

PRINT THIS DATA

[ ← Previous Day ]
WEATHER ALMANAC - MAY 11, 2013
[ Next Day → ]
[ °C ]   °F
Weather ElementAverageHighLow
Temperature58.3 °F70 °F (11:54 am)48 °F (11:54 pm)
Dewpoint43.9 °F52 °F (10:54 am)30 °F (7:54 pm)
Humidity62.7 %93 % (5:54 am)30 % (5:54 pm)
Barometer30.05 in30.17 in (10:54 pm)29.99 in (11:54 am)
Wind Speed8.9 mph20.7 mph (4:54 pm)
Wind Gust29.9 mph (2:54 pm)
Weather ElementAverage
Visibility9.9 mi
Wind DirectionWNW (275.7 °)

Weather ElementTotal
Precipitation---
Heating Degree Days6 (Base 65)
Growing Degree Days9 (Base 50)
Averaged from 28 records on May 11, 2013
WEATHER CONDITIONS BREAKOUT
WIND DIRECTION BREAKOUT
WEATHER BY HOUR - MAY 11, 2013
[ °C ]   °F
Local TimeTemperatureDewpointHumidityBarometerVisibilityWind DirectionWind SpeedGust SpeedPrecipitationEventsConditions
1:37 AM55.4 °F50.0 °F82 %30.03 in10.0 miNW (310°)4.6 mphOvercast
1:54 AM55.9 °F50.0 °F80 %30.03 in10.0 miWNW (300°)3.5 mphOvercast
2:43 AM55.4 °F50.0 °F82 %30.03 in10.0 miWest (280°)4.6 mphOvercast
2:54 AM55.0 °F50.0 °F83 %30.02 in10.0 miWNW (300°)3.5 mphOvercast
3:07 AM55.4 °F50.0 °F82 %30.02 in10.0 miWNW (290°)4.6 mphOvercast
3:31 AM55.4 °F50.0 °F82 %30.02 in10.0 miWNW (300°)6.9 mphOvercast
3:54 AM55.0 °F50.0 °F83 %30.01 in10.0 miWNW (290°)6.9 mphOvercast
4:50 AM53.6 °F48.2 °F82 %30.00 in10.0 miCalmPartly Cloudy
4:54 AM52.0 °F48.9 °F89 %30.00 in10.0 miCalmPartly Cloudy
5:54 AM48.9 °F46.9 °F93 %30.01 in8.0 miWSW (250°)3.5 mphClear
6:54 AM52.0 °F48.9 °F89 %30.02 in8.0 miWSW (250°)5.8 mphClear
7:54 AM55.0 °F50.0 °F83 %30.02 in10.0 miWest (260°)6.9 mphPartly Cloudy
8:54 AM57.2 °F50.0 °F77 %30.03 in10.0 miWSW (250°)8.1 mphPartly Cloudy
9:54 AM62.1 °F51.1 °F67 %30.01 in10.0 miWSW (240°)10.4 mphPartly Cloudy
10:54 AM66.0 °F52.0 °F60 %30.00 in10.0 miWSW (250°)11.5 mphPartly Cloudy
11:54 AM70.0 °F50.0 °F49 %29.99 in10.0 miWest (280°)17.3 mphMostly Cloudy
12:54 PM66.9 °F50.0 °F54 %30.01 in10.0 miNNW (330°)18.4 mph26.5 mphOvercast
1:54 PM70.0 °F45.0 °F41 %30.02 in10.0 miNW (320°)18.4 mph25.3 mphScattered Clouds
2:54 PM69.1 °F39.0 °F33 %30.04 in10.0 miNW (320°)18.4 mph29.9 mphPartly Cloudy
3:54 PM66.9 °F35.1 °F31 %30.05 in10.0 miNW (310°)18.4 mph29.9 mphClear
4:54 PM66.0 °F35.1 °F32 %30.06 in10.0 miNNW (340°)20.7 mph27.6 mphClear
5:54 PM64.0 °F32.0 °F30 %30.08 in10.0 miNNW (330°)11.5 mph25.3 mphClear
6:54 PM62.1 °F33.1 °F34 %30.09 in10.0 miNNW (340°)13.8 mph20.7 mphClear
7:54 PM57.9 °F30.0 °F35 %30.11 in10.0 miNNW (340°)8.1 mph20.7 mphClear
8:54 PM54.0 °F33.1 °F45 %30.13 in10.0 miWNW (300°)5.8 mphClear
9:54 PM54.0 °F32.0 °F43 %30.15 in10.0 miNNW (340°)8.1 mphClear
10:54 PM48.9 °F35.1 °F59 %30.17 in10.0 miWNW (300°)5.8 mphClear
11:54 PM48.0 °F33.1 °F56 %30.17 in10.0 miWNW (300°)3.5 mphClear
Hourly data recorded from KSUS, located miles away from St. Louis, Missouri







STORIES FROM OUR PARTNERS